#timestamp,LO_Frequency,Hit,StdDev 
1618552815.6,286047000.2,N
1618552835.4,286047000.4,N
1618552855.2,286047000.4,N
1618552875.1,286047001.0,N
1618552876.0,286047001.0,N
1618552895.8,286047000.3,N
1618552915.6,286047000.6,N
1618552935.5,286047000.2,N
1618552955.3,286047000.5,N
1618552975.2,286047000.2,N
1618552995.9,286047000.6,N
1618553015.7,286047000.3,N
1618553035.6,286047000.4,N
1618553055.4,286047000.7,N
1618553075.2,286047000.8,N
1618553095.1,286047000.3,N
1618553096.0,286047000.3,N
1618553115.8,286047000.7,N
1618553135.7,286047000.5,N
1618553155.5,286046998.5,N
1618553175.3,286047000.5,N
1618553195.2,286047000.5,N
1618553215.0,286046998.5,N
1618553215.9,286046998.5,N
1618553235.8,286047000.8,N
1618553255.6,286047000.3,N
1618553275.4,286046999.9,N
1618553295.3,286047000.0,N
1618553315.1,286047000.2,N
1618553335.8,286046999.7,N
1618553355.7,286047000.0,N
1618553375.5,286047002.4,Y
1618553395.4,286047002.8,P
1618553415.2,286047002.4,N
1618553435.0,286047002.6,N
1618553435.9,286047002.6,N
1618553455.8,286047002.8,N
1618553475.6,286047000.2,N
1618553495.4,286047002.8,N
1618553515.3,286047000.2,N
1618553535.1,286047000.1,N
1618553555.9,286047002.7,N
1618553575.7,286047000.2,N
1618553595.5,286047000.1,N
1618553615.4,286047000.2,N
1618553635.2,286046999.9,N
1618553655.1,286047000.4,N
1618553656.0,286047000.4,N
1618553675.8,286047002.7,N
1618553695.6,286047002.3,N
1618553715.5,286046999.8,N
1618553735.3,286047000.1,N
1618553755.1,286046999.8,N
1618553775.9,286047000.7,N
1618553795.7,286047000.3,N
1618553815.6,286047000.1,N
1618553835.4,286047000.6,N
1618553855.2,286047000.7,N
1618553875.1,286047000.4,N
1618553876.0,286047000.4,N
1618553895.8,286046999.9,N
1618553915.7,286047000.3,N
1618553935.5,286047000.2,N
1618553955.3,286047002.7,N
1618553975.2,286046999.8,N
1618553995.0,286047002.7,N
1618553995.9,286047002.7,N
1618554015.8,286047002.3,N
1618554035.6,286047002.3,N
1618554055.4,286047000.1,N
1618554075.3,286047000.2,N
1618554095.1,286047002.4,N
1618554115.8,286047002.5,N
1618554135.7,286047002.1,N
1618554155.5,286047002.1,N
1618554175.4,286047002.5,N
1618554195.2,286047002.2,N
1618554215.0,286047001.9,N
1618554215.9,286047001.9,N
1618554235.8,286047002.5,N
1618554255.6,286047002.0,N
1618554275.5,286047002.2,N
1618554295.3,286047002.7,N
1618554315.1,286047002.3,N
1618554335.9,286047002.2,N
1618554355.7,286047001.4,N
1618554375.5,286047001.9,N
1618554395.4,286047002.7,N
1618554415.2,286047002.7,N
1618554435.1,286047002.4,N
1618554436.0,286047002.4,N
1618554455.8,286047002.6,N
1618554475.7,286047002.5,Y
1618554495.5,286046999.0,P
1618554515.4,286046999.4,N
1618554535.2,286046999.3,N
1618554555.0,286046996.8,N
1618554556.0,286046996.8,N
1618554575.8,286046996.9,N
1618554595.6,286046997.1,N
1618554615.5,286046997.8,N
1618554635.3,286046997.1,N
1618554655.1,286046999.6,N
1618554675.9,286046999.2,N
1618554695.7,286046996.9,N
1618554715.6,286046999.2,N
1618554735.4,286046997.1,N
1618554755.2,286046996.9,N
1618554775.1,286046997.2,N
1618554776.0,286046997.2,N
1618554795.8,286046997.1,N
1618554815.6,286046996.6,N
1618554835.5,286046999.6,N
1618554855.3,286046999.5,N
1618554875.2,286046996.7,N
1618554895.9,286046999.2,N
1618554915.7,286046999.4,N
1618554935.6,286046996.6,N
1618554955.4,286046999.3,N
1618554975.3,286046998.3,N
1618554995.1,286046998.5,N
1618554996.0,286046998.5,N
1618555015.8,286046999.2,N
1618555035.7,286046996.5,Y
1618555055.5,286047000.6,P
1618555075.4,286047000.5,N
1618555095.2,286047000.1,N
1618555115.0,286046999.7,N
1618555115.9,286046999.7,N
1618555135.8,286047000.2,N
1618555155.6,286046999.9,N
1618555175.5,286047000.3,N
1618555195.3,286047002.8,Y
1618555215.1,286047002.4,P
1618555235.9,286047002.1,N
1618555255.7,286047000.1,N
1618555275.5,286047002.1,N
1618555295.4,286047002.2,N
1618555315.2,286047002.0,N
1618555335.1,286047001.9,N
1618555336.0,286047001.9,N
1618555355.8,286047002.1,N
1618555375.6,286047002.8,Y
1618555395.5,286047000.9,P
1618555415.3,286046998.1,P
1618555435.2,286047000.9,N
1618555455.9,286047000.4,N
1618555475.7,286047001.2,N
1618555495.6,286047001.0,N
1618555515.4,286047001.0,N
1618555535.2,286047000.5,N
1618555555.1,286047000.9,N
1618555556.0,286047000.9,N
1618555575.8,286047000.7,N
1618555595.7,286047000.7,N
1618555615.5,286047000.5,N
1618555635.3,286047000.4,N
1618555655.2,286047000.9,N
1618555675.0,286046998.6,N
1618555675.9,286046998.6,N
1618555695.7,286047000.7,N
1618555715.6,286047000.9,N
1618555735.4,286047000.9,N
1618555755.3,286047000.8,N
1618555775.1,286046999.7,N
1618555795.8,286047002.7,Y
1618555815.7,286047000.4,P
1618555835.5,286047000.6,P
1618555855.4,286047000.1,N
1618555875.2,286046999.9,N
1618555895.0,286046999.9,N
1618555895.9,286046999.9,N
1618555915.8,286047000.6,N
1618555935.6,286047000.6,N
1618555955.5,286046998.3,Y
1618555975.3,286046998.6,P
1618555995.1,286046998.5,N
1618556015.9,286046999.3,N
1618556035.7,286046998.9,N
1618556055.5,286046998.4,N
1618556075.4,286046998.6,N
1618556095.2,286047001.1,N
1618556115.1,286047001.1,N
1618556116.0,286047001.1,N
1618556135.8,286046998.1,N
1618556155.6,286046998.3,N
1618556175.5,286046998.9,N
1618556195.3,286046998.8,N
1618556215.2,286046999.4,N
1618556235.9,286046999.0,N
1618556255.7,286046998.6,N
1618556275.6,286046998.1,N
1618556295.4,286046998.2,N
1618556315.2,286047000.7,N
1618556335.1,286047000.8,N
1618556336.0,286047000.8,N
1618556355.8,286047000.8,N
1618556375.7,286047000.7,N
1618556395.5,286047000.6,N
